Regional Weather Roundup
Issued by NWS

Home | Current Version | Previous Version | Text Only | Print | Product List | Glossary Off
Versions: 1 2 3 4 5 6 7 8 9 10 11 12 13 14 15 16 17 18 19 20 21 22 23 24 25 26 27 28 29 30 31 32 33 34 35 36 37 38 39 40 41 42 43 44 45 46 47 48 49 50

000
ASUS43 KFSD 290310
RWRSD

WEATHER ROUNDUP FOR SOUTH DAKOTA
NATIONAL WEATHER SERVICE SIOUX FALLS SD
1000 PM CDT SAT MAR 28 2015

NOTE: "FAIR" INDICATES FEW OR NO CLOUDS BELOW 12,000 FEET WITH NO
SIGNIFICANT WEATHER AND/OR OBSTRUCTIONS TO VISIBILITY.


SDZ001>005-009-010-012>017-290400-
NORTHWEST AND NORTH CENTRAL SOUTH DAKOTA

CITY           SKY/WX    TMP DP  RH WIND       PRES   REMARKS
BUFFALO          N/A     50  40  68 NW22      29.72R
FAITH            N/A     55  45  68 NW31G46   29.72R
MOBRIDGE       MOCLDY    63  36  36 SW13      29.61R
$$

SDZ012>016-024>037-041>051-057-063-072>074-290400-
SOUTHWEST AND SOUTH CENTRAL SOUTH DAKOTA

CITY           SKY/WX    TMP DP  RH WIND       PRES   REMARKS
RAPID CTY ARPT PTCLDY    59  37  44 NW39G49   29.73R
PIERRE         PTCLDY    56  35  45 SE23G30   29.49F
CUSTER         CLEAR     53  34  48 N14G26    29.81R
ELLSWORTH AFB  PTCLDY    59  38  45 N26G40    29.75R
PHILIP           N/A     67  38  34 NW40G56   29.61R
PINE RIDGE     MOCLDY    66  36  32 N26G37    29.72R
SPEARFISH      FAIR      54  32  43 NW18G28   29.86R
WINNER         FAIR      62  33  33 S38G49    29.57F
$$

SDZ004>011-016>023-039-040-290400-
NORTHEAST SOUTH DAKOTA

CITY           SKY/WX    TMP DP  RH WIND       PRES   REMARKS
ABERDEEN       PTCLDY    49  31  49 S26G35    29.61F
WATERTOWN      CLEAR     43  28  55 S22G33    29.72F
SISSETON         N/A     42  31  64 S18       29.68F
$$

SDZ017-020-022-023-036>040-048>070-290400-
SOUTHEAST SOUTH DAKOTA

CITY           SKY/WX    TMP DP  RH WIND       PRES   REMARKS
SIOUX FALLS    CLEAR     45  28  51 S18       29.83F
HURON          CLEAR     48  32  53 S22G32    29.67F
CHAMBERLAIN    PTCLDY    52  34  51 SE21G26   29.60F
MITCHELL       CLEAR     49  33  54 SE28G37   29.72F
YANKTON        CLEAR     46  32  57 SE20G26   29.83F
$$

ABBREVIATIONS USED IN REMARKS
   TC - TEMPERATURE IN CELSIUS
  WCI - WIND CHILL INDEX
   HX - HEAT INDEX
  VSB - VISIBILITY



USA.gov is the U.S. government's official web portal to all federal, state and local government web resources and services.